Home   Weather   Munich   Past weeks
Flag for Germany

Past Weather in Munich, Bavaria, Germany — Yesterday and Last 2 Weeks

Now
32 °F

Passing clouds.


Feels Like: 32 °F
Forecast: 25 / 16 °F
Wind: 2 mph from North

Location: Oberpfaffenhofen

Current Time: Jan 24, 2019 at 1:51:33 pm

Latest Report: Jan 24, 2019 at 12:50 pm


Visibility: N/A

Pressure: 29.68 "Hg (27.79 "Hg at 526m altitude)

Humidity: 60%

Dew Point: 19 °F

Location of MunichLocation

Past Weather in Munich — Graph

°F

Munich Temperature Yesterday

Maximum temperature yesterday: 25 °F (at 11:20 am)
Minimum temperature yesterday: 21 °F (at 6:50 am)
Average temperature yesterday: 23 °F

High & Low Weather Summary for the Past Weeks

 TemperatureHumidityPressure
High43 °F (Jan 17, 11:50 am)100% (Jan 9, 3:50 pm)30.21 "Hg (Jan 9, 3:50 pm)
Low19 °F (Jan 11, 8:20 am)57% (Jan 17, 11:50 am)29.36 "Hg (Jan 23, 12:20 pm)
Average29 °F84%29.89 "Hg
* Reported Jan 9 12:20 pm — Jan 24 12:20 pm, Munich. Weather by CustomWeather, © 2019

Note: Actual official high and low records may vary slightly from our data, if they occured in-between our weather recording intervals... More about our weather records

Advertising

Munich Weather History for the Previous 24 Hours

Scroll right to see more
 ConditionsComfort  
Time TempWeatherWind HumidityBarometerVisibility
12:20 pm
Thu, Jan 24
28 °FPassing clouds.2 mph69%29.68 "HgN/A
11:50 am28 °FScattered clouds.2 mph69%29.68 "Hg6 mi
11:20 am27 °FPartly sunny.2 mph74%29.68 "Hg5 mi
10:50 am28 °FPassing clouds.No wind69%29.68 "Hg4 mi
10:20 am27 °FPassing clouds.1 mph74%29.68 "Hg4 mi
9:50 am25 °FIce fog.3 mph80%29.68 "Hg3 mi
9:20 am25 °FIce fog.3 mph80%29.68 "Hg3 mi
8:50 am23 °FIce fog.5 mph86%29.65 "Hg3 mi
8:20 am23 °FIce fog.3 mph93%29.65 "Hg3 mi
7:50 am23 °FIce fog.2 mph93%29.65 "Hg3 mi
7:20 am23 °FPassing clouds.1 mph86%29.62 "Hg4 mi
8:20 pm
Wed, Jan 23
23 °FOvercast.6 mph86%29.42 "Hg4 mi
7:50 pm23 °FOvercast.5 mph86%29.42 "Hg4 mi
7:20 pm23 °FOvercast.6 mph86%29.42 "Hg4 mi
6:50 pm23 °FOvercast.7 mph86%29.42 "Hg4 mi
6:20 pm23 °FPassing clouds.8 mph86%29.42 "Hg4 mi
5:50 pm23 °FPassing clouds.7 mph86%29.39 "Hg4 mi
5:20 pm23 °FPassing clouds.7 mph86%29.39 "Hg4 mi
4:50 pm23 °FIce fog.6 mph93%29.39 "Hg3 mi
4:20 pm23 °FIce fog.7 mph93%29.36 "Hg3 mi
3:50 pm25 °FIce fog.7 mph86%29.36 "Hg3 mi
3:20 pm25 °FIce fog.6 mph86%29.36 "Hg3 mi
2:20 pm25 °FIce fog.7 mph86%29.36 "Hg2 mi
1:50 pm25 °FIce fog.6 mph86%29.36 "Hg3 mi
1:20 pm25 °FIce fog.5 mph86%29.36 "Hg3 mi
Weather by CustomWeather, © 2019

See weather overview